Location: Newark
(30.0000°S, 28.7500°E)
Time: 02:07:02
(UTC+00:00)

ISS - Visible Passes

Search period start: 22 September 2020 00:00
Search period end: 02 October 2020 00:00
Orbit: 419 x 420 km, 51.6° (Epoch: 22 September)

Date Brightness Start Highest point End Pass type
(mag) Time Alt. Az. Time Alt. Az. Time Alt. Az.
22 Sep -3.5 03:16:44 10° WNW 03:20:04 53° SW 03:23:26 10° SE visible
23 Sep -3.7 02:31:48 46° NNW 02:32:40 75° NE 02:36:06 10° SE visible
24 Sep -1.3 01:46:47 24° E 01:46:47 24° E 01:48:29 10° ESE visible
24 Sep -1.8 03:19:53 10° W 03:22:13 17° SW 03:24:35 10° S visible
25 Sep -2.6 02:34:36 28° SW 02:34:40 28° SW 02:37:42 10° SSE visible
26 Sep -1.3 01:49:18 20° SSE 01:49:18 20° SSE 01:50:32 10° SE visible
27 Sep -1.2 02:36:52 11° SSW 02:36:55 11° SSW 02:37:48 10° SSW visible
28 Sep -0.8 01:51:21 11° S 01:51:21 11° S 01:51:36 10° S visible
